Weather History for KBKW - September, 2013

Change the Weather History Date:

Tuesday, September 10, 2013

  Actual Average Record
Temperature  
Mean Temperature 75 °F 65 °F  
Max Temperature 84 °F 75 °F 88 °F (1931)
Min Temperature 66 °F 56 °F 30 °F (1956)
Degree Days  
Heating Degree Days 0 2  
Month to date heating degree days 1 15  
Since 1 July heating degree days 21 36  
Cooling Degree Days 10 2  
Month to date cooling degree days 38 32  
Year to date cooling degree days 581 525  
Growing Degree Days 25 (Base 50)    
Moisture  
Dew Point 64 °F    
Average Humidity 69    
Maximum Humidity 87    
Minimum Humidity 51    
Precipitation  
Precipitation 0.00 in 0.10 in 2.45 in (2000)
Month to date precipitation 0.09 0.99  
Year to date precipitation 30.06 30.65  
Snow  
Snow 0.00 in - - ()
Month to date snowfall 0.0  
Since 1 September snowfall 0.0  
Snow Depth 0.00 in    
Sea Level Pressure  
Sea Level Pressure 30.18 in    
Wind  
Wind Speed 4 mph (SSW)    
Max Wind Speed 10 mph    
Max Gust Speed 13 mph    
Visibility 10 miles    
Events      
T = Trace of Precipitation, MM = Missing Value Source: NWS Daily Summary

Daily Weather History Graph

Daily Weather History Graph

Search for Another Location

Airport or City:

Trip Planner

Search our weather history database for the weather conditions in past years. The results will help you decide how hot, cold, wet, or windy it might be!

Date:

Astronomy

Sep. 10, 2013 Rise Set
Actual Time 7:02 AM EDT 7:39 PM EDT
Civil Twilight 6:35 AM EDT 8:06 PM EDT
Nautical Twilight 6:04 AM EDT 8:37 PM EDT
Astronomical Twilight 5:32 AM EDT 9:09 PM EDT
Moon 12:20 PM EDT (9/10) 10:48 PM EDT (9/10)
Length of Visible Light 13h 30m
Length of Day
12h 37m
Waxing Crescent, 28% of the Moon is Illuminated
Sep 10
Waxing Crescent
Sep 12
First Quarter
Sep 19
Full
Sep 26
Last Quarter
Oct 4
New

Hourly Weather History & Observations

Time (EDT) Temp. Heat Index Dew Point Humidity Pressure Visibility Wind Dir Wind Speed Gust Speed Precip Events Conditions
12:51 AM 70.0 °F - 63.0 °F 78% 30.12 in 9.0 mi SSE 8.1 mph - N/A   Mostly Cloudy
1:51 AM 69.1 °F - 63.0 °F 81% 30.12 in 9.0 mi South 4.6 mph - N/A   Clear
2:51 AM 68.0 °F - 63.0 °F 84% 30.13 in 9.0 mi Variable 3.5 mph - N/A   Clear
3:51 AM 68.0 °F - 62.1 °F 81% 30.14 in 9.0 mi SE 4.6 mph - N/A   Clear
4:51 AM 68.0 °F - 62.1 °F 81% 30.14 in 9.0 mi SSE 4.6 mph - N/A   Partly Cloudy
5:51 AM 66.9 °F - 62.1 °F 84% 30.16 in 9.0 mi SSE 4.6 mph - N/A   Clear
6:51 AM 66.0 °F - 61.0 °F 84% 30.18 in 9.0 mi Calm Calm - N/A   Scattered Clouds
7:51 AM 66.9 °F - 62.1 °F 84% 30.20 in 10.0 mi Calm Calm - N/A   Scattered Clouds
8:51 AM 69.1 °F - 62.1 °F 78% 30.21 in 10.0 mi SSW 4.6 mph - N/A   Overcast
9:51 AM 72.0 °F - 63.0 °F 73% 30.22 in 10.0 mi SW 8.1 mph - N/A   Partly Cloudy
10:51 AM 73.0 °F - 64.0 °F 73% 30.22 in 10.0 mi SW 6.9 mph - N/A   Clear
11:51 AM 77.0 °F - 64.9 °F 66% 30.21 in 10.0 mi SW 6.9 mph - N/A   Partly Cloudy
12:30 PM 78.8 °F - 64.4 °F 61% 30.31 in 10.0 mi SW 6.9 mph - N/A   Mostly Cloudy
12:51 PM 79.0 °F - 64.9 °F 62% 30.20 in 10.0 mi SSW 6.9 mph - N/A   Mostly Cloudy
1:01 PM 78.8 °F - 64.4 °F 61% 30.31 in 10.0 mi Calm Calm - N/A   Scattered Clouds
1:51 PM 82.0 °F 83.8 °F 64.9 °F 56% 30.19 in 10.0 mi WNW 3.5 mph - N/A   Clear
2:51 PM 84.0 °F 85.4 °F 64.0 °F 51% 30.17 in 10.0 mi Calm Calm - N/A   Scattered Clouds
3:51 PM 82.9 °F 84.4 °F 64.0 °F 53% 30.15 in 10.0 mi West 6.9 mph - N/A   Scattered Clouds
4:51 PM 82.0 °F 83.4 °F 64.0 °F 54% 30.14 in 10.0 mi Variable 3.5 mph - N/A   Clear
5:51 PM 82.0 °F 83.1 °F 63.0 °F 52% 30.13 in 10.0 mi SSW 4.6 mph - N/A   Clear
6:51 PM 80.1 °F 81.7 °F 64.0 °F 58% 30.14 in 10.0 mi SW 4.6 mph - N/A   Clear
7:51 PM 73.9 °F - 64.9 °F 73% 30.16 in 10.0 mi Calm Calm - N/A   Clear
8:51 PM 72.0 °F - 64.9 °F 78% 30.18 in 10.0 mi South 4.6 mph - N/A   Clear
9:51 PM 71.1 °F - 64.9 °F 81% 30.19 in 10.0 mi South 4.6 mph - N/A   Clear
10:51 PM 70.0 °F - 64.0 °F 81% 30.20 in 10.0 mi South 5.8 mph - N/A   Partly Cloudy
11:51 PM 71.1 °F - 64.9 °F 81% 30.19 in 10.0 mi SSE 4.6 mph - N/A   Clear